This is the latest recevied weather packets stored in our database for station/object WZ9ZZZ-1. If no packets are shown the sender has not sent any weather packets the latest 10 day(s).
| Time | Temp. | Humidity | Pressure | Rain* | Wind** | Luminosity | Snow |
|---|---|---|---|---|---|---|---|
| 1777983710 | 23.33° C | 89% | 1012.3 hPa | 0 mm | - | 16 W/m² | - |
| 1777983407 | 23.33° C | 89% | 1012.8 hPa | 0 mm | - | 10 W/m² | - |
| 1777983103 | 23.33° C | 89% | 1012.9 hPa | 0 mm | - | 16 W/m² | - |
| 1777982799 | 23.33° C | 89% | 1013 hPa | 0 mm | - | 14 W/m² | - |
| 1777982496 | 23.33° C | 89% | 1012.8 hPa | 0 mm | - | 4 W/m² | - |
| 1777982190 | 23.33° C | 89% | 1012.7 hPa | 0 mm | - | 7 W/m² | - |
| 1777981888 | 23.33° C | 89% | 1012.5 hPa | 0 mm | - | 3 W/m² | - |
| 1777981584 | 23.33° C | 89% | 1012.6 hPa | 0 mm | - | 0 W/m² | - |
| 1777981281 | 23.33° C | 89% | 1012.7 hPa | 0 mm | - | 1 W/m² | - |
| 1777980977 | 23.33° C | 89% | 1012.4 hPa | 0 mm | - | 0 W/m² | - |
| 1777980674 | 23.33° C | 89% | 1012.5 hPa | 0 mm | - | 0 W/m² | - |
| 1777980370 | 23.33° C | 89% | 1012.7 hPa | 0 mm | - | 0 W/m² | - |
| 1777980068 | 23.33° C | 89% | 1012.7 hPa | 0 mm | - | 0 W/m² | - |
| 1777979762 | 23.33° C | 89% | 1012.7 hPa | 0 mm | - | 0 W/m² | - |
| 1777979458 | 23.33° C | 89% | 1012.9 hPa | 0 mm | - | 0 W/m² | - |
| 1777979155 | 23.33° C | 89% | 1013.1 hPa | 0 mm | - | 0 W/m² | - |
| 1777978852 | 23.33° C | 89% | 1012.7 hPa | 0 mm | - | 0 W/m² | - |
| 1777978548 | 23.33° C | 89% | 1012.8 hPa | 0 mm | - | 0 W/m² | - |
| 1777978244 | 23.33° C | 89% | 1012.5 hPa | 0 mm | - | 0 W/m² | - |
| 1777977941 | 23.33° C | 89% | 1012.5 hPa | 0 mm | - | 0 W/m² | - |
| 1777977639 | 23.33° C | 89% | 1012.5 hPa | 0 mm | - | 0 W/m² | - |
| 1777977335 | 23.33° C | 89% | 1012.5 hPa | 0 mm | - | 0 W/m² | - |
| 1777977033 | 23.33° C | 88% | 1012.6 hPa | 0 mm | - | 0 W/m² | - |
| 1777976730 | 23.33° C | 88% | 1012.6 hPa | 0 mm | - | 0 W/m² | - |
| 1777976427 | 23.33° C | 88% | 1012.5 hPa | 0 mm | - | 0 W/m² | - |
* Rain latest hour (hover to see other rain measurements)
** Current wind speed in m/s (hover to see current wind gust speed)